�������l�o���
Date,Time,MP-1(��Sv/h),MP-2(��Sv/h),MP-3(��Sv/h),MP-4(��Sv/h),MP-5(��Sv/h),MP-6(��Sv/h),MP-7(��Sv/h),MP-8(��Sv/h),����,����(m/s),���J
2023/06/11,00:00,0.534,0.794,0.484,0.956,0.694,0.321,0.565,0.533,��쓌,2.0,��
2023/06/11,00:10,0.533,0.794,0.486,0.956,0.693,0.323,0.563,0.531,��,1.7,��
2023/06/11,00:20,0.533,0.794,0.486,0.957,0.692,0.321,0.563,0.532,��,1.7,��
2023/06/11,00:30,0.535,0.794,0.486,0.958,0.691,0.322,0.562,0.533,��,1.5,��
2023/06/11,00:40,0.532,0.794,0.486,0.959,0.693,0.323,0.564,0.533,��,2.0,��
2023/06/11,00:50,0.532,0.796,0.485,0.957,0.694,0.322,0.564,0.531,��쓌,2.0,��
2023/06/11,01:00,0.532,0.797,0.485,0.959,0.694,0.322,0.565,0.532,��,1.4,��
2023/06/11,01:10,0.536,0.795,0.486,0.959,0.693,0.322,0.565,0.532,-,CALM,��
2023/06/11,01:20,0.535,0.794,0.487,0.958,0.692,0.323,0.565,0.532,�k�k��,1.2,��
2023/06/11,01:30,0.535,0.795,0.487,0.960,0.694,0.323,0.565,0.532,�k�k��,1.7,��
2023/06/11,01:40,0.534,0.795,0.488,0.959,0.694,0.322,0.564,0.532,�k�k��,1.9,��
2023/06/11,01:50,0.535,0.795,0.487,0.959,0.694,0.322,0.565,0.532,�k�k��,1.7,��
2023/06/11,02:00,0.535,0.796,0.487,0.957,0.695,0.322,0.564,0.534,�k�k��,2.2,��
2023/06/11,02:10,0.535,0.794,0.486,0.959,0.694,0.322,0.565,0.533,�k,2.0,��
2023/06/11,02:20,0.537,0.797,0.488,0.958,0.694,0.323,0.564,0.533,�k�k��,2.6,��
2023/06/11,02:30,0.536,0.795,0.485,0.960,0.693,0.322,0.565,0.534,�k�k��,3.7,��
2023/06/11,02:40,0.534,0.796,0.488,0.958,0.693,0.323,0.564,0.533,�k�k��,5.1,��
2023/06/11,02:50,0.535,0.798,0.487,0.960,0.695,0.323,0.564,0.534,�k�k��,5.1,��
2023/06/11,03:00,0.536,0.795,0.488,0.959,0.693,0.323,0.564,0.533,�k�k��,5.2,��
2023/06/11,03:10,0.534,0.794,0.488,0.958,0.692,0.322,0.563,0.533,�k�k��,5.5,��
2023/06/11,03:20,0.537,0.795,0.487,0.961,0.693,0.323,0.564,0.533,�k�k��,5.3,��
2023/06/11,03:30,0.535,0.796,0.487,0.960,0.694,0.320,0.564,0.533,�k�k��,5.3,��
2023/06/11,03:40,0.533,0.794,0.486,0.960,0.695,0.320,0.564,0.532,�k�k��,5.2,��
2023/06/11,03:50,0.535,0.796,0.486,0.960,0.692,0.322,0.564,0.533,�k�k��,4.6,��
2023/06/11,04:00,0.536,0.796,0.486,0.958,0.695,0.322,0.563,0.533,�k�k��,5.2,��
2023/06/11,04:10,0.534,0.796,0.487,0.956,0.694,0.321,0.563,0.533,�k�k��,5.5,��
2023/06/11,04:20,0.534,0.795,0.486,0.958,0.693,0.322,0.563,0.532,�k�k��,4.2,�L
2023/06/11,04:30,0.536,0.796,0.487,0.958,0.697,0.321,0.564,0.533,�k�k��,4.1,�L
2023/06/11,04:40,0.534,0.794,0.486,0.960,0.694,0.323,0.564,0.532,�k�k��,4.4,�L
2023/06/11,04:50,0.534,0.794,0.486,0.959,0.695,0.322,0.564,0.533,�k�k��,3.0,�L
2023/06/11,05:00,0.535,0.795,0.487,0.958,0.694,0.322,0.563,0.533,�k�k��,2.6,�L
2023/06/11,05:10,0.534,0.793,0.488,0.958,0.695,0.322,0.564,0.531,�k�k��,4.3,�L
2023/06/11,05:20,0.534,0.794,0.487,0.961,0.694,0.323,0.565,0.533,�k�k��,3.9,�L
2023/06/11,05:30,0.533,0.794,0.487,0.960,0.694,0.322,0.564,0.532,�k�k��,3.4,�L
2023/06/11,05:40,0.532,0.792,0.487,0.959,0.694,0.323,0.564,0.533,�k�k��,2.2,�L
2023/06/11,05:50,0.533,0.791,0.484,0.958,0.695,0.323,0.564,0.531,�k�k��,0.8,�L
2023/06/11,06:00,0.533,0.793,0.486,0.959,0.693,0.325,0.561,0.529,�k��,1.4,�L
2023/06/11,06:10,0.535,0.792,0.486,0.959,0.691,0.324,0.561,0.529,�k��,1.5,�L
2023/06/11,06:20,0.531,0.789,0.486,0.962,0.693,0.324,0.561,0.528,�k��,1.5,�L
2023/06/11,06:30,0.533,0.791,0.485,0.958,0.689,0.323,0.561,0.529,�k�k��,2.5,�L
2023/06/11,06:40,0.532,0.792,0.483,0.956,0.689,0.322,0.560,0.530,�k�k��,3.1,�L
2023/06/11,06:50,0.533,0.791,0.485,0.957,0.691,0.321,0.561,0.529,�k��,3.0,��
2023/06/11,07:00,0.531,0.792,0.485,0.956,0.689,0.322,0.560,0.529,�k�k��,2.2,��
2023/06/11,07:10,0.532,0.789,0.484,0.958,0.690,0.320,0.560,0.530,�k�k��,2.3,��
2023/06/11,07:20,0.531,0.791,0.484,0.957,0.689,0.320,0.561,0.529,�k��,2.5,��
2023/06/11,07:30,0.532,0.788,0.484,0.957,0.688,0.320,0.561,0.527,�k�k��,2.0,��
2023/06/11,07:40,0.531,0.787,0.484,0.957,0.688,0.320,0.561,0.528,�k�k��,2.0,��
2023/06/11,07:50,0.530,0.787,0.482,0.956,0.687,0.318,0.561,0.530,�k�k��,2.6,�L
2023/06/11,08:00,0.529,0.786,0.482,0.956,0.686,0.320,0.561,0.527,�k�k��,2.3,�L
2023/06/11,08:10,0.530,0.787,0.479,0.955,0.686,0.319,0.559,0.530,�k�k��,2.5,�L
2023/06/11,08:20,0.529,0.786,0.483,0.957,0.685,0.319,0.559,0.529,�k,2.6,�L
2023/06/11,08:30,0.528,0.784,0.482,0.956,0.684,0.319,0.559,0.528,�k,2.6,�L
2023/06/11,08:40,0.528,0.785,0.482,0.955,0.683,0.320,0.560,0.527,�k�k��,2.5,�L
2023/06/11,08:50,0.528,0.782,0.481,0.954,0.684,0.318,0.557,0.527,�k�k��,3.2,�L
2023/06/11,09:00,0.529,0.784,0.482,0.953,0.685,0.318,0.558,0.527,�k�k��,2.8,�L
2023/06/11,09:10,0.527,0.783,0.481,0.955,0.682,0.318,0.558,0.526,�k�k��,3.2,�L
2023/06/11,09:20,0.527,0.781,0.479,0.951,0.678,0.319,0.558,0.526,�k�k��,3.0,�L
2023/06/11,09:30,0.527,0.780,0.478,0.950,0.679,0.317,0.558,0.527,�k�k��,3.3,�L
2023/06/11,09:40,0.524,0.776,0.477,0.949,0.678,0.318,0.558,0.526,�k�k��,2.6,�L
2023/06/11,09:50,0.525,0.774,0.475,0.946,0.678,0.317,0.557,0.524,�k�k��,2.6,�L
2023/06/11,10:00,0.523,0.774,0.476,0.945,0.676,0.317,0.556,0.523,�k,2.0,�L
2023/06/11,10:10,0.523,0.774,0.474,0.944,0.674,0.317,0.554,0.523,�k,2.0,�L
2023/06/11,10:20,0.522,0.770,0.473,0.943,0.674,0.318,0.555,0.522,�k,2.0,�L
2023/06/11,10:30,0.520,0.772,0.473,0.942,0.675,0.317,0.556,0.524,�k,1.9,�L
2023/06/11,10:40,0.521,0.770,0.472,0.942,0.672,0.316,0.556,0.524,�k,2.0,�L
2023/06/11,10:50,0.521,0.769,0.472,0.940,0.674,0.316,0.554,0.523,�k,2.0,�L
2023/06/11,11:00,0.518,0.768,0.473,0.938,0.671,0.316,0.554,0.522,�k,1.9,�L
2023/06/11,11:10,0.520,0.768,0.471,0.937,0.670,0.317,0.555,0.524,�k�k��,2.6,�L
2023/06/11,11:20,0.518,0.769,0.471,0.939,0.670,0.315,0.556,0.524,�k,3.0,�L
2023/06/11,11:30,0.519,0.765,0.471,0.937,0.671,0.318,0.554,0.523,�k,3.0,�L
2023/06/11,11:40,0.519,0.765,0.471,0.936,0.670,0.316,0.555,0.522,�k,3.0,�L
2023/06/11,11:50,0.518,0.765,0.471,0.938,0.668,0.316,0.555,0.522,�k,2.9,�L
2023/06/11,12:00,0.518,0.765,0.471,0.938,0.670,0.317,0.554,0.522,�k,2.3,�L
2023/06/11,12:10,0.519,0.766,0.472,0.935,0.668,0.316,0.554,0.522,�k,2.6,�L
2023/06/11,12:20,0.518,0.766,0.471,0.935,0.671,0.317,0.555,0.523,�k,2.9,�L
2023/06/11,12:30,0.519,0.768,0.471,0.937,0.670,0.317,0.555,0.522,�k,4.0,�L
2023/06/11,12:40,0.520,0.767,0.472,0.938,0.671,0.316,0.555,0.523,�k,4.6,�L
2023/06/11,12:50,0.520,0.769,0.472,0.936,0.672,0.315,0.555,0.523,�k�k��,2.6,�L
2023/06/11,13:00,0.519,0.767,0.472,0.936,0.672,0.315,0.555,0.524,�k�k��,3.7,��
2023/06/11,13:10,0.519,0.771,0.472,0.936,0.670,0.316,0.555,0.524,�k�k��,3.4,��
2023/06/11,13:20,0.520,0.769,0.472,0.936,0.672,0.316,0.554,0.524,�k��,3.6,��
2023/06/11,13:30,0.521,0.768,0.473,0.936,0.673,0.316,0.555,0.523,�k�k��,3.8,��
2023/06/11,13:40,0.520,0.768,0.475,0.935,0.672,0.315,0.555,0.524,�k�k��,3.8,��
2023/06/11,13:50,0.519,0.769,0.471,0.937,0.671,0.316,0.555,0.525,�k��,4.1,��
2023/06/11,14:00,0.520,0.770,0.471,0.937,0.671,0.315,0.555,0.524,�k��,3.4,�L
2023/06/11,14:10,0.520,0.771,0.472,0.937,0.671,0.316,0.556,0.525,�k��,2.9,�L
2023/06/11,14:20,0.520,0.770,0.472,0.936,0.673,0.316,0.555,0.523,�k��,2.6,�L
2023/06/11,14:30,0.521,0.771,0.474,0.936,0.673,0.316,0.555,0.524,���k��,2.3,�L
2023/06/11,14:40,0.521,0.770,0.471,0.937,0.672,0.316,0.554,0.524,�k��,2.2,�L
2023/06/11,14:50,0.519,0.769,0.471,0.935,0.673,0.314,0.557,0.524,�k�k��,1.7,��
2023/06/11,15:00,0.521,0.770,0.473,0.939,0.671,0.315,0.556,0.524,�k��,0.9,��
2023/06/11,15:10,0.521,0.769,0.472,0.935,0.673,0.315,0.555,0.525,�k��,0.9,�L
2023/06/11,15:20,0.519,0.770,0.472,0.939,0.675,0.314,0.555,0.525,��,0.9,�L
2023/06/11,15:30,0.522,0.772,0.473,0.939,0.673,0.315,0.553,0.523,��,1.5,�L
2023/06/11,15:40,0.520,0.772,0.473,0.939,0.672,0.315,0.556,0.525,��,1.4,�L
2023/06/11,15:50,0.520,0.772,0.473,0.939,0.673,0.316,0.555,0.524,��,1.5,�L
2023/06/11,16:00,0.520,0.770,0.472,0.938,0.676,0.317,0.554,0.524,�k��,1.1,�L
2023/06/11,16:10,0.521,0.770,0.473,0.938,0.675,0.315,0.554,0.524,�k��,1.2,�L
2023/06/11,16:20,0.520,0.771,0.472,0.938,0.675,0.316,0.555,0.524,�k��,1.5,�L
2023/06/11,16:30,0.520,0.768,0.473,0.937,0.673,0.315,0.554,0.525,�k��,0.6,�L
2023/06/11,16:40,0.520,0.769,0.473,0.939,0.673,0.316,0.554,0.523,�k�k��,0.8,�L
2023/06/11,16:50,0.519,0.769,0.472,0.939,0.673,0.316,0.552,0.522,�k�k��,0.6,�L
2023/06/11,17:00,0.518,0.766,0.471,0.936,0.671,0.315,0.553,0.525,�k��,1.1,�L
2023/06/11,17:10,0.517,0.767,0.471,0.938,0.670,0.316,0.554,0.526,�k�k��,0.9,�L
2023/06/11,17:20,0.517,0.765,0.470,0.937,0.669,0.316,0.553,0.524,�k�k��,1.1,�L
2023/06/11,17:30,0.516,0.765,0.471,0.934,0.671,0.316,0.552,0.522,�k�k��,1.2,�L
2023/06/11,17:40,0.516,0.764,0.471,0.936,0.669,0.316,0.552,0.523,�k�k��,2.3,�L
2023/06/11,17:50,0.514,0.762,0.470,0.933,0.667,0.315,0.551,0.522,�k��,1.2,�L
2023/06/11,18:00,0.513,0.760,0.469,0.934,0.664,0.316,0.552,0.521,�k,2.5,�L
2023/06/11,18:10,0.513,0.760,0.470,0.930,0.667,0.316,0.549,0.522,�k,3.0,�L
2023/06/11,18:20,0.514,0.759,0.470,0.931,0.663,0.314,0.551,0.522,�k�k��,3.2,�L
2023/06/11,18:30,0.514,0.759,0.470,0.931,0.664,0.315,0.550,0.520,�k�k��,2.6,�L
2023/06/11,18:40,0.513,0.760,0.469,0.928,0.663,0.314,0.550,0.521,�k�k��,2.0,�L
2023/06/11,18:50,0.513,0.760,0.470,0.930,0.665,0.314,0.551,0.522,�k�k��,2.2,�L
2023/06/11,19:00,0.515,0.760,0.470,0.928,0.665,0.314,0.550,0.521,�k��,2.5,�L
2023/06/11,19:10,0.514,0.758,0.470,0.928,0.665,0.315,0.550,0.521,�k,2.8,�L
2023/06/11,19:20,0.513,0.759,0.469,0.929,0.664,0.315,0.551,0.521,�k,3.0,�L
2023/06/11,19:30,0.515,0.760,0.469,0.927,0.665,0.315,0.549,0.522,�k,3.0,�L
2023/06/11,19:40,0.514,0.760,0.470,0.929,0.665,0.314,0.552,0.521,�k�k��,3.0,�L
2023/06/11,19:50,0.515,0.762,0.471,0.928,0.663,0.315,0.549,0.521,�k�k��,2.5,�L
2023/06/11,20:00,0.515,0.761,0.471,0.929,0.665,0.315,0.549,0.520,�k�k��,2.5,�L
2023/06/11,20:10,0.514,0.761,0.472,0.929,0.665,0.316,0.550,0.523,�k�k��,2.6,�L
2023/06/11,20:20,0.515,0.761,0.471,0.928,0.669,0.313,0.550,0.522,�k�k��,2.5,�L
2023/06/11,20:30,0.516,0.762,0.470,0.928,0.669,0.315,0.551,0.522,�k�k��,2.6,�L
2023/06/11,20:40,0.517,0.762,0.472,0.931,0.668,0.315,0.551,0.522,�k�k��,3.2,�L
2023/06/11,20:50,0.515,0.762,0.472,0.929,0.669,0.314,0.550,0.523,�k�k��,4.6,�L
2023/06/11,21:00,0.516,0.762,0.472,0.929,0.668,0.316,0.552,0.522,�k�k��,5.2,�L
2023/06/11,21:10,0.516,0.763,0.471,0.927,0.670,0.315,0.551,0.521,�k�k��,4.0,�L
2023/06/11,21:20,0.516,0.762,0.471,0.929,0.669,0.316,0.550,0.522,�k,3.5,�L
2023/06/11,21:30,0.513,0.761,0.472,0.930,0.666,0.315,0.550,0.521,�k�k��,5.1,�L
2023/06/11,21:40,0.512,0.757,0.471,0.928,0.664,0.315,0.551,0.521,�k�k��,4.8,�L
2023/06/11,21:50,0.514,0.759,0.471,0.926,0.664,0.315,0.549,0.523,�k�k��,5.2,�L
2023/06/11,22:00,0.512,0.758,0.470,0.926,0.663,0.314,0.551,0.521,�k�k��,6.5,�L
2023/06/11,22:10,0.514,0.758,0.470,0.925,0.662,0.315,0.549,0.521,�k�k��,6.1,��
2023/06/11,22:20,0.513,0.758,0.468,0.926,0.664,0.313,0.552,0.521,�k�k��,5.3,��
2023/06/11,22:30,0.513,0.757,0.470,0.926,0.664,0.315,0.551,0.521,�k�k��,4.8,��
2023/06/11,22:40,0.514,0.759,0.470,0.926,0.665,0.315,0.551,0.521,�k�k��,5.7,�L
2023/06/11,22:50,0.514,0.760,0.471,0.926,0.666,0.315,0.551,0.524,�k�k��,5.1,��
2023/06/11,23:00,0.514,0.763,0.471,0.926,0.666,0.315,0.550,0.523,�k�k��,5.7,�L
2023/06/11,23:10,0.515,0.761,0.469,0.929,0.668,0.314,0.551,0.524,�k�k��,5.9,�L
2023/06/11,23:20,0.515,0.762,0.470,0.928,0.667,0.315,0.551,0.524,�k�k��,5.5,�L
2023/06/11,23:30,0.514,0.762,0.470,0.928,0.666,0.314,0.551,0.523,�k�k��,5.7,�L
2023/06/11,23:40,0.515,0.761,0.471,0.927,0.668,0.314,0.551,0.523,�k�k��,5.5,�L
2023/06/11,23:50,0.515,0.761,0.470,0.929,0.668,0.316,0.552,0.523,�k�k��,4.9,��
